SWA2055 KLAS-KRNO

Flight info

Callsign SWA2055
Flight time 0h 56m
Altitude 36000
Route JOHKR5 KENNO SCOLA1
Aircraft B38M/M-SDE1FGHILORVWXY/HB1

Departure

Time 2026-05-07 17:42
Airport Harry Reid International Airport (KLAS)

Arrival

Time 2026-05-07 18:39
Airport Reno Tahoe International Airport (KRNO)
Time Latitude Longitude Altitude Speed Heading
2026-05-07 16:47 36.08519 -115.15347 2192 ft 0 kts 334°
2026-05-07 17:24 36.08518 -115.15346 2190 ft 2 kts 334°
2026-05-07 17:25 36.08495 -115.15332 2192 ft 4 kts 330°
2026-05-07 17:25 36.08472 -115.15314 2191 ft 4 kts 323°
2026-05-07 17:25 36.08452 -115.15292 2191 ft 4 kts 306°
2026-05-07 17:25 36.08444 -115.15265 2190 ft 4 kts 255°
2026-05-07 17:26 36.08445 -115.15260 2193 ft 1 kts 245°
2026-05-07 17:31 36.08445 -115.15261 2190 ft 1 kts 245°
2026-05-07 17:32 36.08439 -115.15276 2191 ft 3 kts 245°
2026-05-07 17:32 36.08417 -115.15336 2191 ft 13 kts 244°
2026-05-07 17:32 36.08385 -115.15421 2192 ft 5 kts 245°
2026-05-07 17:32 36.08367 -115.15467 2190 ft 7 kts 245°
2026-05-07 17:33 36.08344 -115.15531 2191 ft 11 kts 246°
2026-05-07 17:33 36.08278 -115.15564 2192 ft 13 kts 160°
2026-05-07 17:33 36.08193 -115.15515 2192 ft 15 kts 155°
2026-05-07 17:33 36.08088 -115.15454 2192 ft 18 kts 155°
2026-05-07 17:34 36.07973 -115.15388 2193 ft 19 kts 155°
2026-05-07 17:34 36.07852 -115.15319 2191 ft 19 kts 155°
2026-05-07 17:34 36.07805 -115.15175 2191 ft 20 kts 89°
2026-05-07 17:34 36.07797 -115.15000 2191 ft 21 kts 95°
2026-05-07 17:35 36.07785 -115.14816 2192 ft 22 kts 94°
2026-05-07 17:35 36.07772 -115.14620 2192 ft 24 kts 94°
2026-05-07 17:35 36.07758 -115.14406 2194 ft 27 kts 95°
2026-05-07 17:35 36.07754 -115.14186 2190 ft 26 kts 90°
2026-05-07 17:36 36.07754 -115.13960 2191 ft 26 kts 89°
2026-05-07 17:36 36.07756 -115.13728 2191 ft 27 kts 89°
2026-05-07 17:36 36.07755 -115.13491 2192 ft 28 kts 90°
2026-05-07 17:36 36.07755 -115.13286 2192 ft 20 kts 90°
2026-05-07 17:37 36.07755 -115.13106 2191 ft 22 kts 90°
2026-05-07 17:37 36.07755 -115.12915 2191 ft 23 kts 90°
2026-05-07 17:37 36.07755 -115.12712 2190 ft 24 kts 90°
2026-05-07 17:37 36.07756 -115.12513 2190 ft 22 kts 89°
2026-05-07 17:38 36.07756 -115.12340 2191 ft 12 kts 90°
2026-05-07 17:38 36.07748 -115.12262 2191 ft 6 kts 121°
2026-05-07 17:38 36.07741 -115.12252 2191 ft 0 kts 139°
2026-05-07 17:39 36.07740 -115.12251 2191 ft 1 kts 140°
2026-05-07 17:39 36.07715 -115.12239 2194 ft 10 kts 170°
2026-05-07 17:39 36.07644 -115.12276 2191 ft 6 kts 258°
2026-05-07 17:40 36.07644 -115.12280 2191 ft 0 kts 267°
2026-05-07 17:41 36.07644 -115.12281 2191 ft 0 kts 267°
2026-05-07 17:41 36.07642 -115.12358 2191 ft 35 kts 269°
2026-05-07 17:41 36.07641 -115.12973 2195 ft 106 kts 270°
2026-05-07 17:42 36.07639 -115.14117 2196 ft 161 kts 270°
2026-05-07 17:42 36.07642 -115.15664 2430 ft 190 kts 270°
2026-05-07 17:42 36.07647 -115.17328 3144 ft 196 kts 270°
2026-05-07 17:42 36.07640 -115.19039 3895 ft 198 kts 272°
2026-05-07 17:43 36.07605 -115.20812 4458 ft 218 kts 264°
2026-05-07 17:43 36.07364 -115.22772 4959 ft 243 kts 262°
2026-05-07 17:43 36.06865 -115.24846 5583 ft 258 kts 237°
2026-05-07 17:43 36.05593 -115.26353 6625 ft 257 kts 210°
2026-05-07 17:44 36.03918 -115.27209 7411 ft 265 kts 201°
2026-05-07 17:44 36.02162 -115.28029 7842 ft 271 kts 201°
2026-05-07 17:44 36.00425 -115.28837 7995 ft 270 kts 201°
2026-05-07 17:44 35.98686 -115.29743 8150 ft 272 kts 210°
2026-05-07 17:45 35.97024 -115.30859 8943 ft 277 kts 209°
2026-05-07 17:45 35.95263 -115.32017 9535 ft 294 kts 209°
2026-05-07 17:45 35.93434 -115.33204 10281 ft 301 kts 208°
2026-05-07 17:45 35.91547 -115.34419 10768 ft 308 kts 208°
2026-05-07 17:46 35.89849 -115.35984 10839 ft 304 kts 232°
2026-05-07 17:46 35.88862 -115.38249 10940 ft 301 kts 257°
2026-05-07 17:46 35.88646 -115.40797 10991 ft 299 kts 272°
2026-05-07 17:46 35.88665 -115.43375 10971 ft 300 kts 272°
2026-05-07 17:47 35.88694 -115.45952 10993 ft 300 kts 272°
2026-05-07 17:47 35.88732 -115.48519 10981 ft 300 kts 273°
2026-05-07 17:47 35.88776 -115.51099 11047 ft 302 kts 273°
2026-05-07 17:47 35.88824 -115.53695 11770 ft 302 kts 273°
2026-05-07 17:48 35.88874 -115.56309 12553 ft 311 kts 273°
2026-05-07 17:48 35.88927 -115.59059 12959 ft 331 kts 274°
2026-05-07 17:48 35.88982 -115.61964 13491 ft 344 kts 273°
2026-05-07 17:48 35.89037 -115.64958 14133 ft 352 kts 273°
2026-05-07 17:49 35.89094 -115.67993 14854 ft 356 kts 273°
2026-05-07 17:49 35.89150 -115.71062 15620 ft 359 kts 273°
2026-05-07 17:49 35.89205 -115.74112 16363 ft 363 kts 274°
2026-05-07 17:49 35.89261 -115.77245 17084 ft 366 kts 274°
2026-05-07 17:50 35.89316 -115.80395 17826 ft 370 kts 274°
2026-05-07 17:50 35.89371 -115.83576 18515 ft 373 kts 274°
2026-05-07 17:50 35.89426 -115.86796 19134 ft 376 kts 274°
2026-05-07 17:50 35.89557 -115.90025 19715 ft 377 kts 282°
2026-05-07 17:51 35.90369 -115.93073 20288 ft 373 kts 301°
2026-05-07 17:51 35.91904 -115.95625 20836 ft 372 kts 319°
2026-05-07 17:51 35.93857 -115.97728 21383 ft 374 kts 322°
2026-05-07 17:51 35.95877 -115.99781 21950 ft 377 kts 323°
2026-05-07 17:52 35.97928 -116.01808 22531 ft 380 kts 324°
2026-05-07 17:52 36.00011 -116.03840 23066 ft 383 kts 324°
2026-05-07 17:52 36.02122 -116.05881 23638 ft 386 kts 324°
2026-05-07 17:52 36.04252 -116.07931 24091 ft 389 kts 324°
2026-05-07 17:53 36.06398 -116.09994 24573 ft 391 kts 324°
2026-05-07 17:53 36.08524 -116.12037 25038 ft 394 kts 324°
2026-05-07 17:53 36.10700 -116.14130 25476 ft 397 kts 324°
2026-05-07 17:53 36.12891 -116.16237 25942 ft 399 kts 324°
2026-05-07 17:54 36.15087 -116.18351 26380 ft 402 kts 324°
2026-05-07 17:54 36.17298 -116.20487 26787 ft 404 kts 324°
2026-05-07 17:54 36.19530 -116.22638 27214 ft 407 kts 324°
2026-05-07 17:54 36.21769 -116.24731 27570 ft 398 kts 322°
2026-05-07 17:55 36.23626 -116.27288 27386 ft 408 kts 307°
2026-05-07 17:55 36.25167 -116.30293 27507 ft 416 kts 304°
2026-05-07 17:55 36.26663 -116.33314 27988 ft 417 kts 304°
2026-05-07 17:55 36.28187 -116.36394 28371 ft 420 kts 304°
2026-05-07 17:56 36.29720 -116.39493 28772 ft 422 kts 304°
2026-05-07 17:56 36.31265 -116.42610 29152 ft 425 kts 304°
2026-05-07 17:56 36.32818 -116.45737 29535 ft 427 kts 304°
2026-05-07 17:56 36.34383 -116.48890 29924 ft 430 kts 304°
2026-05-07 17:57 36.35953 -116.52053 30260 ft 432 kts 304°
2026-05-07 17:57 36.37000 -116.54163 30468 ft 434 kts 304°
2026-05-07 17:57 36.39110 -116.58413 30880 ft 437 kts 304°
2026-05-07 17:57 36.40715 -116.61631 31186 ft 439 kts 304°
2026-05-07 17:58 36.42326 -116.64865 31455 ft 442 kts 304°
2026-05-07 17:58 36.43949 -116.68121 31771 ft 443 kts 304°
2026-05-07 17:58 36.45582 -116.71388 32090 ft 445 kts 304°
2026-05-07 17:58 36.47223 -116.74662 32371 ft 447 kts 304°
2026-05-07 17:59 36.48874 -116.77959 32671 ft 449 kts 304°
2026-05-07 17:59 36.50539 -116.81197 32996 ft 448 kts 309°
2026-05-07 17:59 36.52684 -116.83947 33416 ft 441 kts 323°
2026-05-07 17:59 36.55170 -116.86163 33769 ft 439 kts 332°
2026-05-07 18:00 36.57942 -116.87692 34120 ft 434 kts 345°
2026-05-07 18:00 36.60833 -116.88826 34398 ft 436 kts 342°
2026-05-07 18:00 36.63697 -116.90064 34699 ft 436 kts 342°
2026-05-07 18:00 36.66561 -116.91315 35010 ft 435 kts 342°
2026-05-07 18:01 36.69386 -116.92555 35303 ft 435 kts 342°
2026-05-07 18:01 36.72239 -116.93807 35606 ft 435 kts 342°
2026-05-07 18:01 36.75013 -116.95326 35903 ft 436 kts 334°
2026-05-07 18:01 36.77725 -116.97075 35992 ft 437 kts 335°
2026-05-07 18:02 36.85797 -117.02288 36014 ft 435 kts 335°
2026-05-07 18:03 36.91177 -117.05779 36010 ft 435 kts 334°
2026-05-07 18:03 36.96507 -117.09244 36031 ft 435 kts 334°
2026-05-07 18:04 37.01880 -117.12743 36038 ft 435 kts 334°
2026-05-07 18:04 37.07254 -117.16245 36058 ft 435 kts 334°
2026-05-07 18:05 37.12590 -117.19732 36046 ft 435 kts 334°
2026-05-07 18:05 37.17970 -117.23252 36051 ft 435 kts 334°
2026-05-07 18:06 37.22438 -117.26180 36050 ft 435 kts 334°
2026-05-07 18:06 37.26915 -117.29117 36045 ft 435 kts 334°
2026-05-07 18:07 37.32677 -117.34141 36064 ft 438 kts 322°
2026-05-07 18:07 37.36594 -117.38271 36045 ft 438 kts 322°
2026-05-07 18:08 37.41244 -117.43236 36045 ft 438 kts 321°
2026-05-07 18:08 37.45862 -117.48185 36035 ft 439 kts 321°
2026-05-07 18:09 37.50637 -117.52957 36045 ft 436 kts 330°
2026-05-07 18:09 37.55785 -117.57024 36048 ft 437 kts 329°
2026-05-07 18:10 37.60927 -117.61097 36043 ft 436 kts 329°
2026-05-07 18:10 37.66049 -117.65157 36043 ft 436 kts 329°
2026-05-07 18:11 37.71202 -117.69248 36035 ft 437 kts 329°
2026-05-07 18:11 37.76349 -117.73340 36041 ft 436 kts 329°
2026-05-07 18:12 37.81486 -117.77431 36045 ft 436 kts 329°
2026-05-07 18:12 37.86620 -117.81527 36045 ft 436 kts 329°
2026-05-07 18:13 37.91721 -117.85603 36047 ft 435 kts 329°
2026-05-07 18:13 37.96841 -117.89702 36048 ft 435 kts 329°
2026-05-07 18:14 38.01972 -117.93816 36032 ft 435 kts 329°
2026-05-07 18:14 38.07085 -117.97923 36052 ft 435 kts 329°
2026-05-07 18:15 38.12155 -118.02001 36042 ft 433 kts 329°
2026-05-07 18:15 38.17242 -118.06100 36059 ft 433 kts 329°
2026-05-07 18:16 38.22341 -118.10216 36053 ft 435 kts 329°
2026-05-07 18:16 38.27462 -118.14357 36041 ft 434 kts 328°
2026-05-07 18:17 38.32517 -118.18451 36055 ft 433 kts 328°
2026-05-07 18:17 38.37610 -118.22581 36028 ft 427 kts 328°
2026-05-07 18:17 38.40087 -118.24592 35763 ft 418 kts 328°
2026-05-07 18:18 38.42410 -118.26797 35223 ft 418 kts 317°
2026-05-07 18:18 38.44481 -118.29395 34702 ft 416 kts 317°
2026-05-07 18:18 38.46567 -118.31945 34241 ft 414 kts 317°
2026-05-07 18:18 38.48635 -118.34488 33734 ft 412 kts 317°
2026-05-07 18:19 38.50693 -118.37026 33209 ft 409 kts 317°
2026-05-07 18:19 38.52735 -118.39547 32748 ft 406 kts 317°
2026-05-07 18:19 38.54756 -118.42045 32311 ft 403 kts 317°
2026-05-07 18:19 38.56763 -118.44529 31866 ft 399 kts 317°
2026-05-07 18:20 38.58724 -118.46957 31430 ft 397 kts 317°
2026-05-07 18:20 38.60700 -118.49405 30982 ft 394 kts 317°
2026-05-07 18:20 38.62660 -118.51835 30542 ft 391 kts 317°
2026-05-07 18:20 38.64609 -118.54254 30079 ft 389 kts 317°
2026-05-07 18:21 38.66542 -118.56655 29583 ft 386 kts 317°
2026-05-07 18:21 38.68461 -118.59040 29034 ft 382 kts 317°
2026-05-07 18:21 38.70354 -118.61395 28626 ft 378 kts 317°
2026-05-07 18:21 38.72234 -118.63735 28218 ft 375 kts 317°
2026-05-07 18:22 38.74098 -118.66052 27736 ft 374 kts 317°
2026-05-07 18:22 38.75331 -118.67584 27435 ft 373 kts 317°
2026-05-07 18:22 38.77803 -118.70658 26919 ft 368 kts 317°
2026-05-07 18:22 38.79637 -118.72939 26493 ft 366 kts 317°
2026-05-07 18:23 38.81464 -118.75215 26064 ft 365 kts 317°
2026-05-07 18:23 38.83285 -118.77484 25631 ft 364 kts 317°
2026-05-07 18:23 38.85099 -118.79747 25224 ft 363 kts 316°
2026-05-07 18:23 38.86911 -118.82007 24777 ft 363 kts 316°
2026-05-07 18:24 38.88721 -118.84269 24344 ft 363 kts 316°
2026-05-07 18:24 38.90505 -118.86499 23912 ft 354 kts 316°
2026-05-07 18:24 38.92251 -118.88684 23480 ft 345 kts 316°
2026-05-07 18:24 38.93952 -118.90813 23008 ft 339 kts 316°
2026-05-07 18:25 38.95642 -118.92931 22619 ft 339 kts 316°
2026-05-07 18:25 38.97331 -118.95048 22199 ft 339 kts 316°
2026-05-07 18:25 38.99019 -118.97166 21790 ft 338 kts 316°
2026-05-07 18:25 39.00675 -118.99244 21401 ft 337 kts 316°
2026-05-07 18:26 39.02348 -119.01346 21005 ft 335 kts 316°
2026-05-07 18:26 39.04017 -119.03445 20610 ft 335 kts 316°
2026-05-07 18:26 39.05680 -119.05536 20217 ft 334 kts 315°
2026-05-07 18:26 39.07338 -119.07623 19818 ft 333 kts 315°
2026-05-07 18:27 39.08996 -119.09712 19402 ft 333 kts 315°
2026-05-07 18:27 39.10646 -119.11792 19019 ft 332 kts 315°
2026-05-07 18:27 39.12297 -119.13875 18632 ft 332 kts 315°
2026-05-07 18:27 39.13943 -119.15952 18230 ft 332 kts 315°
2026-05-07 18:28 39.15597 -119.18036 17685 ft 330 kts 315°
2026-05-07 18:28 39.17217 -119.20080 17230 ft 321 kts 315°
2026-05-07 18:28 39.18787 -119.22062 16835 ft 311 kts 314°
2026-05-07 18:28 39.20311 -119.23987 16456 ft 303 kts 314°
2026-05-07 18:29 39.21819 -119.25894 16090 ft 304 kts 314°
2026-05-07 18:29 39.23315 -119.27786 15736 ft 306 kts 314°
2026-05-07 18:29 39.24831 -119.29703 15387 ft 305 kts 314°
2026-05-07 18:29 39.26343 -119.31617 15036 ft 304 kts 314°
2026-05-07 18:30 39.27851 -119.33529 14686 ft 304 kts 314°
2026-05-07 18:30 39.29362 -119.35445 14309 ft 304 kts 314°
2026-05-07 18:30 39.30883 -119.37375 13843 ft 308 kts 314°
2026-05-07 18:30 39.32419 -119.39325 13412 ft 309 kts 314°
2026-05-07 18:31 39.33950 -119.41270 13083 ft 306 kts 313°
2026-05-07 18:31 39.35490 -119.43153 12785 ft 303 kts 320°
2026-05-07 18:31 39.37188 -119.44700 12461 ft 301 kts 322°
2026-05-07 18:31 39.38896 -119.46256 12135 ft 298 kts 322°
2026-05-07 18:32 39.40576 -119.47811 11811 ft 297 kts 322°
2026-05-07 18:32 39.42242 -119.49373 11462 ft 296 kts 321°
2026-05-07 18:32 39.43912 -119.50943 11124 ft 296 kts 321°
2026-05-07 18:32 39.45581 -119.52520 10759 ft 297 kts 321°
2026-05-07 18:33 39.47250 -119.54102 10404 ft 298 kts 321°
2026-05-07 18:33 39.48911 -119.55675 10042 ft 291 kts 321°
2026-05-07 18:33 39.50520 -119.57184 9708 ft 282 kts 322°
2026-05-07 18:33 39.52086 -119.58650 9360 ft 273 kts 322°
2026-05-07 18:34 39.53584 -119.60054 9009 ft 265 kts 322°
2026-05-07 18:34 39.55053 -119.61433 8639 ft 257 kts 322°
2026-05-07 18:34 39.56486 -119.62776 8312 ft 250 kts 322°
2026-05-07 18:34 39.57876 -119.64090 7982 ft 238 kts 322°
2026-05-07 18:35 39.59170 -119.65321 7599 ft 230 kts 320°
2026-05-07 18:35 39.60291 -119.66736 7224 ft 222 kts 306°
2026-05-07 18:35 39.61026 -119.68439 6879 ft 212 kts 288°
2026-05-07 18:35 39.61269 -119.70231 6601 ft 191 kts 270°
2026-05-07 18:36 39.61138 -119.71885 6398 ft 181 kts 257°
2026-05-07 18:36 39.60699 -119.73413 6441 ft 182 kts 242°
2026-05-07 18:36 39.59969 -119.74717 6537 ft 177 kts 226°
2026-05-07 18:36 39.59059 -119.75688 6547 ft 161 kts 215°
2026-05-07 18:37 39.58055 -119.76221 6354 ft 155 kts 197°
2026-05-07 18:37 39.57001 -119.76479 6023 ft 154 kts 189°
2026-05-07 18:37 39.55930 -119.76574 5651 ft 153 kts 183°
2026-05-07 18:37 39.54875 -119.76613 5311 ft 153 kts 182°
2026-05-07 18:38 39.53820 -119.76632 5046 ft 151 kts 181°
2026-05-07 18:38 39.52770 -119.76641 4839 ft 151 kts 181°
2026-05-07 18:38 39.51729 -119.76653 4655 ft 147 kts 182°
2026-05-07 18:38 39.50765 -119.76677 4522 ft 120 kts 179°
2026-05-07 18:39 39.50180 -119.76680 4518 ft 49 kts 180°
2026-05-07 18:39 39.49869 -119.76679 4524 ft 30 kts 179°
2026-05-07 18:39 39.49745 -119.76720 4522 ft 12 kts 240°
2026-05-07 18:39 39.49735 -119.76827 4522 ft 12 kts 270°
2026-05-07 18:40 39.49736 -119.76938 4522 ft 13 kts 270°
2026-05-07 18:40 39.49737 -119.77066 4520 ft 16 kts 270°
2026-05-07 18:40 39.49798 -119.77152 4520 ft 15 kts 353°
2026-05-07 18:40 39.49839 -119.77154 4520 ft 15 kts
2026-05-07 18:41 39.49917 -119.77153 4520 ft 16 kts
2026-05-07 18:41 39.50037 -119.77153 4520 ft 19 kts
2026-05-07 18:41 39.50176 -119.77152 4520 ft 20 kts
2026-05-07 18:41 39.50316 -119.77152 4521 ft 21 kts 360°
2026-05-07 18:42 39.50466 -119.77152 4523 ft 22 kts 360°
2026-05-07 18:42 39.50619 -119.77151 4523 ft 22 kts
2026-05-07 18:42 39.50764 -119.77150 4523 ft 13 kts
2026-05-07 18:42 39.50801 -119.77206 4523 ft 8 kts 271°
2026-05-07 18:43 39.50801 -119.77245 4523 ft 0 kts 271°
2026-05-07 18:43 39.50802 -119.77265 4522 ft 5 kts 270°
2026-05-07 18:43 39.50781 -119.77290 4523 ft 5 kts 195°
2026-05-07 18:43 39.50745 -119.77294 4522 ft 3 kts 182°
2026-05-07 18:44 39.50744 -119.77294 4522 ft 0 kts 182°